Location: ČR
(50.0000°N, 15.0000°E)
Time: 15:05:18
(UTC+00:00)

Explorer 7 - Pass Details

Date: 28 October 2021
Orbit: 483 x 675 km, 50.3° (Epoch: 27 November)

Event Time Altitude Azimuth Distance (km) Brightness Sun altitude
Rises 00:24:15 0° 285° (WNW) 2,801 - -47.8°
Reaches altitude 10° 00:26:37 10° 276° (W) 1,933 - -47.6°
Maximum altitude 00:30:37 33° 212° (SSW) 1,039 - -47.2°
Drops below altitude 10° 00:34:48 10° 149° (SSE) 2,028 - -46.7°
Sets 00:37:20 0° 140° (SE) 2,960 - -46.4°
